Retour au catalogue

STARLINK-4012

ActifCommunicationsVLEO
NORAD 52602·PAYLOAD·🇺🇸 United States

Lancé May 14, 2022 depuis Cape Canaveral Space Force Station

Loading…

Prochains Passages (prochaines 24 heures)

TLE

FraisSource: CelesTrak SupGP

Époque: Sep 14, 2026, 20:41 UTC

1 52602C 22052E   26257.86229167 -.00024480  00000+0 -70063-3 0  2574
2 52602  53.1600 141.9579 0001299  87.4731 161.9692 15.35400110    14

Suivez STARLINK-4012 en temps réel avec AllMySat

Download on the App Store